Location: Ash Swamp
(41.5170°N, 74.6157°W)
Time: 17:00:44
(UTC+00:00)

Cosmos 2154 Rocket - Pass Details

Date: 14 July 2020
Orbit: 967 x 996 km, 82.9° (Epoch: 04 August)

Event Time Altitude Azimuth Distance (km) Brightness Sun altitude
Exits shadow 02:40:49 21° 185° (S) 2,023 5.2 -18.6°
Maximum altitude 02:45:10 90° 116° (ESE) 976 3.9 -19.1°
Drops below altitude 10° 02:51:26 10° 8° (N) 2,728 7.0 -19.8°
Sets 02:53:57 0° 8° (N) 3,683 7.8 -20.0°
